Regional Weather Roundup
Issued by NWS Cleveland, OH

Home | Current Version | Previous Version | Text Only | Print | Product List | Glossary Off
Versions: 1 2 3 4 5 6 7 8 9 10 11 12 13 14 15 16 17 18 19 20 21 22 23 24 25 26 27 28 29 30 31 32 33 34 35 36 37 38 39 40 41 42 43 44 45 46 47 48 49 50

000
ASUS41 KCLE 252002
RWRCLE
OHIO REGIONAL WEATHER ROUNDUP
NATIONAL WEATHER SERVICE CLEVELAND, OH
300 PM EST SUN FEB 25 2018

NOTE: "FAIR" INDICATES FEW OR NO CLOUDS BELOW 12,000 FEET WITH NO
SIGNIFICANT WEATHER AND/OR OBSTRUCTIONS TO VISIBILITY.

OHZ001>008-015>018-024>027-034-035-043-044-252100-
   NORTHWEST OHIO

CITY           SKY/WX    TMP DP  RH WIND       PRES   REMARKS
DEFIANCE       PTSUNNY   41  29  62 W15G29    29.97S
FINDLAY        FAIR      45  30  55 W24G35    29.97R
TOLEDO EXPRESS PTSUNNY   42  29  59 W25G33    29.95R
TOLEDO EXEC    FAIR      43  29  57 W23G33    29.96R
LIMA           PTSUNNY   42  36  79 W23       29.99R
$$

OHZ009>014-019>023-028>033-038-089-252100-
   NORTHEAST OHIO

CITY           SKY/WX    TMP DP  RH WIND       PRES   REMARKS
CLE-HOPKINS    PTSUNNY   48  35  60 SW22G30   29.95R
CLE-LAKEFRONT  FAIR      44  34  67 W13       29.92R
CUY CO. ARPT   PTSUNNY   48  36  61 W12       29.92R
LORAIN-ELYRIA  FAIR      46  31  55 W22G29    29.95R
ASHTABULA      FAIR      45  35  68 W10       29.90R
AKRON-CANTON   PTSUNNY   51  30  44 W16G25    29.92R
WOOSTER        FAIR      47  31  53 W18G26    29.94R
MANSFIELD      FAIR      47  35  63 SW14G22   29.96R
YOUNGSTOWN     PTSUNNY   50  28  42 W18G29    29.89R
$$

OHZ042-051>053-060>062-070>072-077>081-252100-
  SOUTHWEST OHIO

CITY           SKY/WX    TMP DP  RH WIND       PRES   REMARKS
CINC-COVINGTON PTSUNNY   47  32  56 W9        30.04S
CINC-LUNKEN    FAIR      50  37  61 VRB6      30.06S
HAMILTON       FAIR      50  30  46 SW10      30.05F
DAYTON         PTSUNNY   46  33  60 W18       30.02R
WRIGHT-PAT AFB FAIR      50  32  50 SW16G22   30.01S
DAYTON GENERAL FAIR      49  32  52 SW15      30.01F
WILMINGTON     FAIR      48  38  68 SW15      30.01R
$$

OHZ036-037-039>041-045>050-054>059-063>069-073>076-082>088-252100-
  CENTRAL AND SOUTHEAST OHIO

CITY           SKY/WX    TMP DP  RH WIND       PRES   REMARKS
COLUMBUS       PTSUNNY   50  37  61 SW14G23   30.00R
OSU AIRPORT    FAIR      49  34  56 W13       29.99S
BOLTON FIELD   SUNNY     48  37  66 SW15G22   30.01S
RICKENBACK AFB FAIR      49  38  64 W16G23    30.00F
NEWARK         FAIR      50  33  52 SW20G25   29.98R
MARION         FAIR      45  31  58 SW17G23   29.98R
LANCASTER      FAIR      49  37  63 W15G21    30.01R
ZANESVILLE     FAIR      50  31  48 W12G24    29.98S
NEW PHILLY     NOT AVBL
$$




USA.gov is the U.S. government's official web portal to all federal, state and local government web resources and services.